Flag for Canada Weather past 2 weeks in St. John's, Newfoundland and Labrador, Canada

Now
57 °F

Partly sunny.


Feels Like: 55 °F
Forecast: 44 / 62 °F
Wind: 12 mph from West

Location: St. John's

Current Time: May 26, 2015 at 8:25:52 AM

Latest Report: May 26, 2015 at 7:30 AM


Visibility: 15 mi

Pressure: 30.19 "Hg

Humidity: 63%

Dew point: 45 °F

Location of St. John'sLocation

Historic Weather in St. John's — Graph

°F

St. John's temperature yesterday

Maximum temperature yesterday: 66 °F (at 1:30 PM)
Minimum temperature yesterday: 46 °F (at 1:30 AM)
Average temperature yesterday: 54 °F

Past Weeks' High & Low Weather Summary

 TemperatureHumidityPressure
High66 °F (May 25, 1:30 PM)100% (May 11, 6:30 AM)30.51 "Hg (May 11, 6:30 AM)
Low28 °F (May 11, 8:30 PM)32% (May 15, 1:30 PM)29.33 "Hg (May 13, 6:30 AM)
Average45 °F79%30.00 "Hg
* Reported May 11 6:30 AM — May 26 6:30 AM, St. John's, Weather by CustomWeather, © 2015

Note: Actual official high and low records may vary slightly from our data, if they occured in-between our weather recording intervals... More about our weather records

Advertising

St. John's weather history for previous 24 hours

 ConditionsComfort  
Time TempWeatherWind HumidityBarometerVisibility
6:30 AM
Tue, May 26
46 °FPartly sunny.15 mph93%30.19 "Hg15 mi
5:30 AM45 °FPassing clouds.18 mph93%30.19 "Hg15 mi
4:30 AM45 °FPassing clouds.15 mph93%30.18 "Hg15 mi
3:30 AM45 °FPassing clouds.13 mph93%30.17 "Hg15 mi
2:30 AM45 °FPassing clouds.13 mph93%30.17 "Hg15 mi
1:30 AM45 °FPassing clouds.14 mph87%30.17 "Hg15 mi
12:30 AM50 °FPassing clouds.14 mph76%30.17 "Hg15 mi
11:30 PM
Mon, May 25
50 °FPassing clouds.17 mph76%30.18 "Hg15 mi
10:30 PM48 °FPassing clouds.14 mph82%30.19 "Hg15 mi
9:30 PM50 °FPassing clouds.16 mph76%30.19 "Hg15 mi
8:30 PM54 °FBroken clouds.12 mph72%30.17 "Hg15 mi
7:30 PM57 °FPartly sunny.14 mph63%30.16 "Hg15 mi
6:30 PM61 °FBroken clouds.13 mph59%30.15 "Hg15 mi
5:30 PM63 °FBroken clouds.18 mph56%30.15 "Hg15 mi
4:30 PM63 °FBroken clouds.22 mph56%30.15 "Hg15 mi
3:30 PM64 °FBroken clouds.24 mph49%30.16 "Hg15 mi
2:30 PM64 °FPartly sunny.28 mph49%30.16 "Hg15 mi
1:30 PM66 °FBroken clouds.22 mph46%30.16 "Hg15 mi
12:30 PM63 °FBroken clouds.28 mph52%30.17 "Hg15 mi
11:30 AM61 °FBroken clouds.23 mph55%30.18 "Hg15 mi
10:30 AM59 °FPartly sunny.21 mph59%30.19 "Hg15 mi
9:30 AM55 °FPartly sunny.24 mph67%30.19 "Hg15 mi
8:30 AM54 °FPartly sunny.25 mph72%30.19 "Hg15 mi
Weather by CustomWeather, © 2015

See weather overviewHow to use our weather pages